Weather History for Pensacola NAS, FL

Change the Weather History Date:

Friday, January 4, 2013

  Actual Average Record
Temperature  
Mean Temperature 46 °F -  
Max Temperature 57 °F 59 °F - (-1)
Min Temperature 34 °F 40 °F - (-1)
Degree Days  
Heating Degree Days 20    
Moisture  
Dew Point 32 °F    
Average Humidity 65    
Maximum Humidity 89    
Minimum Humidity 35    
Precipitation  
Precipitation 0.00 in - - ()
Sea Level Pressure  
Sea Level Pressure 30.36 in    
Wind  
Wind Speed 6 mph (North)    
Max Wind Speed 13 mph    
Max Gust Speed -    
Visibility 10 miles    
Events      
Averages and records for this station are not official NWS values.
T = Trace of Precipitation, MM = Missing Value Source: NWS Daily Summary

Daily Weather History Graph

Daily Weather History Graph

Search for Another Location

Airport:

Trip Planner

Search our weather history database for the weather conditions in past years. The results will help you decide how hot, cold, wet, or windy it might be!

Date:

Astronomy

Jan. 04, 2013 Rise Set
Actual Time 6:46 AM CST 5:02 PM CST
Civil Twilight 6:20 AM CST 5:28 PM CST
Nautical Twilight 5:50 AM CST 5:58 PM CST
Astronomical Twilight 5:21 AM CST 6:27 PM CST
Moon No Moon Rise 11:01 AM CST (1/4)
Length of Visible Light 11h 08m
Length of Day
10h 15m
Waning Gibbous, 55% of the Moon is Illuminated
Jan 4
Waning Gibbous
Jan 4
Last Quarter
Jan 11
New
Jan 18
First Quarter
Jan 26
Full

Hourly Weather History & Observations

Time (CST) Temp. Windchill Dew Point Humidity Pressure Visibility Wind Dir Wind Speed Gust Speed Precip Events Conditions
12:56 AM 37.0 °F 31.6 °F 30.0 °F 76% 30.33 in 10.0 mi North 6.9 mph - N/A   Clear
1:56 AM 37.0 °F 32.4 °F 30.9 °F 79% 30.33 in 10.0 mi NNE 5.8 mph - N/A   Clear
2:56 AM 37.0 °F 32.4 °F 30.9 °F 79% 30.34 in 10.0 mi North 5.8 mph - N/A   Clear
3:56 AM 36.0 °F 31.1 °F 30.0 °F 79% 30.33 in 10.0 mi North 5.8 mph - N/A   Clear
4:56 AM 36.0 °F 30.3 °F 30.0 °F 79% 30.33 in 10.0 mi North 6.9 mph - N/A   Clear
5:56 AM 35.1 °F 32.2 °F 30.0 °F 82% 30.36 in 10.0 mi NNW 3.5 mph - N/A   Mostly Cloudy
6:56 AM 34.0 °F 28.8 °F 30.0 °F 85% 30.38 in 10.0 mi North 5.8 mph - N/A   Mostly Cloudy
7:56 AM 39.9 °F 33.9 °F 30.9 °F 70% 30.38 in 10.0 mi NNE 9.2 mph - N/A   Mostly Cloudy
8:56 AM 45.0 °F 39.3 °F 30.0 °F 56% 30.40 in 10.0 mi NNE 11.5 mph - N/A   Mostly Cloudy
9:56 AM 46.0 °F 41.4 °F 30.0 °F 54% 30.42 in 10.0 mi North 9.2 mph - N/A   Mostly Cloudy
10:56 AM 48.9 °F - 30.0 °F 48% 30.40 in 10.0 mi North 9.2 mph - N/A   Mostly Cloudy
11:56 AM 52.0 °F - 28.9 °F 41% 30.38 in 10.0 mi NNE 8.1 mph - N/A   Mostly Cloudy
12:56 PM 55.0 °F - 28.0 °F 35% 30.34 in 10.0 mi North 12.7 mph - N/A   Mostly Cloudy
1:56 PM 57.0 °F - 30.9 °F 37% 30.32 in 10.0 mi NNE 6.9 mph - N/A   Mostly Cloudy
2:56 PM 55.9 °F - 30.0 °F 37% 30.32 in 10.0 mi NNE 9.2 mph - N/A   Mostly Cloudy
3:56 PM 55.0 °F - 30.9 °F 40% 30.33 in 10.0 mi NNE 8.1 mph - N/A   Mostly Cloudy
4:56 PM 51.1 °F - 34.0 °F 52% 30.34 in 10.0 mi North 3.5 mph - N/A   Mostly Cloudy
5:56 PM 46.9 °F - 36.0 °F 66% 30.36 in 10.0 mi Calm Calm - N/A   Mostly Cloudy
6:56 PM 43.0 °F 41.3 °F 37.9 °F 82% 30.39 in 10.0 mi NW 3.5 mph - N/A   Mostly Cloudy
7:56 PM 42.1 °F 40.2 °F 39.0 °F 89% 30.38 in 10.0 mi North 3.5 mph - N/A   Mostly Cloudy
8:56 PM 44.1 °F 42.5 °F 37.0 °F 76% 30.38 in 10.0 mi NNW 3.5 mph - N/A   Mostly Cloudy
9:56 PM 43.0 °F 41.3 °F 37.0 °F 80% 30.38 in 10.0 mi NNW 3.5 mph - N/A   Clear
10:56 PM 45.0 °F 43.5 °F 35.1 °F 68% 30.36 in 10.0 mi North 3.5 mph - N/A   Clear
11:56 PM 45.0 °F 42.6 °F 33.1 °F 63% 30.35 in 10.0 mi North 4.6 mph - N/A   Clear